Location: Caltech
(34.1382°N, 118.1253°W)
Time: 21:51:34
(UTC-07:00)

RS-15 - Visible Passes

Search period start: 21 April 2018 00:00
Search period end: 01 May 2018 00:00
Orbit: 1889 x 2156 km, 64.8° (Epoch: 21 April)

Date Brightness Start Highest point End Pass type
(mag) Time Alt. Az. Time Alt. Az. Time Alt. Az.
21 Apr 9.6 00:25:10 10° NNW 00:33:43 23° NE 00:41:56 10° E visible
21 Apr 7.9 02:36:50 10° NNW 02:48:19 79° ENE 02:59:15 10° SSE visible
21 Apr 8.7 04:51:24 10° NW 04:59:15 23° W 05:06:58 10° SSW visible
21 Apr 10.2 21:32:35 10° NNW 21:36:54 12° N 21:41:10 10° NNE visible
21 Apr 9.8 23:49:17 10° NNW 23:56:40 18° NNE 00:03:49 10° ENE visible
22 Apr 8.2 02:00:50 10° NNW 02:12:10 61° NE 02:19:08 26° SE visible
22 Apr 8.4 04:14:19 10° NW 04:23:42 32° WSW 04:26:34 29° SW visible
22 Apr 10.2 20:53:47 10° NW 20:59:23 14° NNW 21:04:55 10° N visible
22 Apr 9.9 23:13:20 10° N 23:19:26 15° NNE 23:25:22 10° NE visible
23 Apr 8.6 01:24:54 10° NNW 01:35:53 48° NE 01:41:52 27° ESE visible
23 Apr 8.1 03:37:40 10° NW 03:48:03 45° WSW 03:49:27 43° SW visible
23 Apr 10.1 20:15:01 10° WNW 20:22:02 17° NNW 20:28:55 10° NNE visible
23 Apr 10.0 22:37:14 10° N 22:42:02 13° NNE 22:46:44 10° NE visible
24 Apr 8.9 00:49:00 10° NNW 00:59:25 37° NE 01:05:33 22° E visible
24 Apr 7.8 03:01:17 10° NW 03:12:18 60° WSW 03:13:10 59° SW visible
24 Apr 10.1 22:00:44 10° NNW 22:04:29 12° N 22:08:11 10° NNE visible
25 Apr 9.2 00:13:09 10° NNW 00:22:48 29° NE 00:29:37 17° E visible
25 Apr 7.7 02:25:04 10° NNW 02:36:26 79° WSW 02:37:16 75° SSW visible
25 Apr 9.2 04:42:02 10° WNW 04:44:55 13° W 04:44:55 13° W visible
25 Apr 10.1 21:23:25 10° NNW 21:26:53 11° N 21:30:17 10° NNE visible
25 Apr 9.5 23:37:17 10° NNW 23:45:58 23° NE 23:53:55 11° E visible
26 Apr 7.8 01:48:58 10° NNW 02:00:27 82° ENE 02:01:35 74° ESE visible
26 Apr 9.0 04:03:45 10° WNW 04:09:16 20° W 04:09:16 20° W visible
26 Apr 10.2 20:45:08 10° NNW 20:49:16 12° N 20:53:21 10° NNE visible
26 Apr 9.7 23:01:25 10° NNW 23:08:58 19° NNE 23:16:16 10° ENE visible
27 Apr 8.1 01:12:58 10° NNW 01:24:19 64° ENE 01:26:04 58° E visible
27 Apr 8.7 03:26:34 10° NW 03:33:45 29° W 03:33:45 29° W visible
27 Apr 10.1 20:06:21 10° NW 20:11:45 14° NNW 20:17:03 10° N visible
27 Apr 9.8 22:25:29 10° NNW 22:31:46 15° NNE 22:37:52 10° NE visible
28 Apr 8.4 00:37:01 10° NNW 00:48:03 50° NE 00:50:39 43° E visible
28 Apr 8.4 02:49:53 10° NW 02:58:20 40° W 02:58:20 40° W visible
28 Apr 9.9 21:49:25 10° N 21:54:23 13° NNE 21:59:14 10° NE visible
29 Apr 8.8 00:01:08 10° NNW 00:11:38 39° NE 00:15:19 32° E visible
29 Apr 8.0 02:13:27 10° NW 02:23:01 55° W 02:23:01 55° W visible
29 Apr 10.0 21:13:01 10° NNW 21:16:51 12° N 21:20:39 10° NNE visible
29 Apr 9.1 23:25:16 10° NNW 23:35:02 30° NE 23:40:04 22° E visible
30 Apr 7.8 01:37:13 10° NNW 01:47:47 73° W 01:47:47 73° W visible
30 Apr 9.5 03:54:45 10° WNW 03:55:30 11° WNW 03:55:30 11° WNW visible
30 Apr 10.1 20:35:51 10° NNW 20:39:15 11° N 20:42:37 10° NNE visible
30 Apr 9.4 22:49:24 10° NNW 22:58:15 24° NE 23:04:53 14° E visible
